Welcome to Hicks Airfield

Driving Safety »



  • Current KAFW METAR
    (5.8nm NE) VFR
    KAFW 221653Z 29010KT 10SM CLR 22/02 A2981 RMK AO2 SLP084 T02170017
  • Flappings Newsletter
    The official newsletter of HAPA.
    Read »
  • Property Owner's Portal
    Create an account on our owner's portal for access to secure documents.
    Log-in »